sat.trackr.live / text

‹ back to catalog

STARLINK-3895

NORAD 52583 · 2022-051AZ

PAYLOAD ACTIVE UNKNOWN

§ Identity

Operator
Country
US
Launch date
2022-05-13
Launch site
AFWTR
Launch vehicle
Mass (kg)
RCS (m²)

Purposes: comms

External: N2YO · Heavens-Above · Gunter

§ Orbital elements

Epoch: 2026-09-20T04:32:55.105152Z

Period
93.79 min
Inclination
53.1618°
Eccentricity
0.0001113
Mean motion
15.35392678 rev/d
Perigee alt
459.0 km
Apogee alt
460.5 km
Semi-major
6,837.9 km
B*
-1.3133e-5
RAAN
318.0156°
Arg perigee
87.0408°
Mean anomaly
273.0722°
Rev number
24,105

§ Raw data

STARLINK-38951 52583U 22051AZ  26263.18952668 -.00000838  00000+0 -13133-4 0  99922 52583  53.1618 318.0156 0001113  87.0408 273.0722 15.35392678241050

JSON: /api/v1/satellites/52583 · /tle

For live sub-satellite position, see the globe view (requires WebGL).

§ Visibility from observer

Set your observer location to see the next 7 days of passes ≥ 10°. The values pass through the URL so the page stays shareable.

No JS? Fill the form by hand. The geolocation button needs JavaScript.